Regional Weather Roundup
Issued by NWS Kansas City/Pleasant Hill, MO

Home | Current Version | Previous Version | Text Only | Print | Product List | Glossary On
Versions: 1 2 3 4 5 6 7 8 9 10 11 12 13 14 15 16 17 18 19 20 21 22 23 24 25 26 27 28 29 30 31 32 33 34 35 36 37 38 39 40 41 42 43 44 45 46 47 48 49 50
000
ASUS43 KEAX 231910
RWREAX

WEATHER ROUNDUP FOR EASTERN KANSAS AND NORTHWEST MISSOURI
NATIONAL WEATHER SERVICE KANSAS CITY/PLEASANT HILL MO
200 PM CDT WED APR 23 2014

KSZ040-057-103>105-MOZ028-029-037-043-232000-
...KANSAS CITY METROPOLITAN AREA...

CITY           SKY/WX    TMP DP  RH WIND       PRES   REMARKS
K.C. INTL      MOSUNNY   70  39  32 SE23G31   29.84F
K.C. DOWNTOWN  SUNNY     72  40  31 SE15G26   29.84F
LEES SUMMIT    SUNNY     68  40  35 SE17G29   29.88F
OLATHE - IXD   SUNNY     71  41  33 SE23G30   29.84F
OLATHE - OJC   SUNNY     69  41  36 SE21G28   29.84F
LAWRENCE       MOSUNNY   75  41  29 SE24G32   29.81F

$$

MOZ001>008-011>017-020>025-030>033-038>040-044>046-053-054-232000-
...NORTHERN AND CENTRAL MISSOURI...

CITY           SKY/WX    TMP DP  RH WIND       PRES   REMARKS
ST. JOSEPH     CLOUDY    64  42  44 SE12G22   29.84F
MOSBY          FAIR      68  36  30 SE16G24   29.87F
WARRENSBURG    MOSUNNY  N/A N/A N/A E15       29.91F
WHITEMAN AFB   PTSUNNY   66  32  28 SE15G23   29.93F
CLINTON        PTSUNNY   68  43  40 SE13      29.94F HAZE
SEDALIA        CLOUDY    67  39  35 SE16      29.96F
WARSAW         NOT AVBL
MARSHALL         N/A     70  41  35 SE17G24   29.96F
CHILLICOTHE      N/A     59  39  47 SE15G21   29.95F
MOBERLY        CLOUDY    59  41  51 SE13G20   30.00
KIRKSVILLE     CLOUDY    57  38  48 E16       29.99F

$$

MOZ041-047>049-056>058-063>065-088>090-097-232000-
...EASTERN AND SOUTHERN MISSOURI...

CITY           SKY/WX    TMP DP  RH WIND       PRES   REMARKS
ST. LOUIS INTL MOSUNNY   64  37  36 E12G18    30.06F
SPIRIT OF STL  PTSUNNY   63  39  41 E10       30.05F
COLUMBIA       CLOUDY    62  36  37 E12       29.99F
JEFFERSON CITY CLOUDY    65  34  31 SE10      29.99F
MEXICO         CLOUDY    57  41  54 E14       30.03F
HANNIBAL       PTSUNNY   64  27  24 E9        30.04F
ROLLA          CLOUDY    69  33  26 SE8       29.99F
LEBANON        CLOUDY    70  36  28 SE5       29.96F
OSAGE BEACH    CLOUDY    66  36  32 SE6       29.98F
SPRINGFIELD    PTSUNNY   74  42  31 S15G24    29.93F
BRANSON        PTSUNNY   72  41  33 SE14G20   29.96F
NEVADA         SUNNY     75  46  35 SE12G18   29.90F
JOPLIN         SUNNY     78  46  32 S18G24    29.87F
WEST PLAINS    SUNNY     70  37  29 S10       30.00F
MALDEN         SUNNY     72  37  28 NE5       30.03F

$$

IAZ060-094-KSZ022-034>040-054-083-096-NEZ052-066-093-232000-
...KANSAS...SOUTHEAST NEBRASKA AND IOWA...

CITY           SKY/WX    TMP DP  RH WIND       PRES   REMARKS
TOPEKA         PTSUNNY   76  42  29 SE20G29   29.79F
MANHATTAN      CLOUDY    76  44  32 S20G28    29.74F
EMPORIA        SUNNY     78  46  32 S22G31    29.78F
CHANUTE        SUNNY     79  48  33 S18G25    29.83F
WICHITA        PTSUNNY   84  48  28 S26G38    29.73F
OMAHA          LGT RAIN  52  43  71 SE31G39   29.71F
LINCOLN        CLOUDY    62  45  53 S23G33    29.69F
FALLS CITY     CLOUDY    56  44  64 E13       29.83
LAMONI         CLOUDY    52  40  63 E12G22    29.92F
DES MOINES     LGT RAIN  47  40  76 SE10G22   29.98F

$$




USA.gov is the U.S. government's official web portal to all federal, state and local government web resources and services.